User: anonymous   Login
Location: Unspecified
(0.0000°N, 0.0000°E)
Time: 00:46:22
(UTC+00:00)
Language:

METEOR M2 - Orbit

View from above orbital plane
View from above orbital plane
View from above satellite
View from above satellite

Ground track
Ground track

The orbit data is extracted from the following two-line orbital elements,

1 40069U 14037A   24103.82607538  .00000170  00000-0  97525-4 0  9993
2 40069  98.4363 100.9908 0005680 176.2513 183.8709 14.20926252506342
Epoch (UTC): 12 April 2024 19:49:32
Eccentricity: 0.0005680
inclination: 98.4363°
perigee height: 818 km
apogee height: 826 km
right ascension of ascending node: 100.9908°
argument of perigee: 176.2513°
revolutions per day: 14.20926252
mean anomaly at epoch: 183.8709°
orbit number at epoch: 50634

The dashed part of the orbit path shows where the satellite is in the earth's shadow,  

DLR